TimeHST,TemperatureF,Dew PointF,Humidity,Sea Level PressureIn,VisibilityMPH,Wind Direction,Wind SpeedMPH,Gust SpeedMPH,PrecipitationIn,Events,Conditions,WindDirDegrees,DateUTC
12:54 AM,69.1,64.9,87,30.03,10.0,SE,3.5,-,N/A,,Clear,130,2013-05-01 10:54:00
1:54 AM,68.0,64.0,87,30.02,10.0,SE,4.6,-,N/A,,Clear,140,2013-05-01 11:54:00
2:54 AM,64.9,63.0,93,30.01,10.0,Calm,Calm,-,N/A,,Clear,0,2013-05-01 12:54:00
3:54 AM,66.9,64.0,90,30.02,10.0,Calm,Calm,-,N/A,,Clear,0,2013-05-01 13:54:00
4:54 AM,66.9,63.0,87,30.03,10.0,Calm,Calm,-,N/A,,Clear,0,2013-05-01 14:54:00
5:54 AM,66.0,62.1,87,30.04,10.0,East,5.8,-,N/A,,Clear,90,2013-05-01 15:54:00
6:54 AM,73.0,64.9,76,30.06,10.0,Variable,3.5,-,N/A,,Clear,0,2013-05-01 16:54:00
7:54 AM,78.1,63.0,60,30.07,10.0,NE,3.5,-,N/A,,Clear,50,2013-05-01 17:54:00
8:54 AM,82.0,66.9,60,30.07,10.0,NE,17.3,-,N/A,,Partly Cloudy,40,2013-05-01 18:54:00
9:54 AM,84.0,66.9,56,30.07,10.0,NE,13.8,-,N/A,,Partly Cloudy,50,2013-05-01 19:54:00
10:54 AM,86.0,66.9,53,30.06,10.0,ENE,16.1,23.0,N/A,,Partly Cloudy,60,2013-05-01 20:54:00
11:54 AM,87.1,66.9,51,30.04,10.0,ENE,19.6,25.3,N/A,,Scattered Clouds,60,2013-05-01 21:54:00
12:54 PM,87.1,66.9,51,30.03,10.0,ENE,17.3,25.3,N/A,,Partly Cloudy,70,2013-05-01 22:54:00
1:54 PM,87.1,66.9,51,30.01,10.0,NE,19.6,24.2,N/A,,Scattered Clouds,50,2013-05-01 23:54:00
2:54 PM,87.1,66.9,51,30.01,10.0,ENE,18.4,27.6,N/A,,Partly Cloudy,60,2013-05-02 00:54:00
3:54 PM,84.9,66.0,53,30.00,10.0,ENE,20.7,27.6,N/A,,Partly Cloudy,70,2013-05-02 01:54:00
4:54 PM,84.0,64.9,53,30.00,10.0,NE,20.7,26.5,N/A,,Partly Cloudy,50,2013-05-02 02:54:00
5:54 PM,82.0,66.9,60,30.00,10.0,NE,16.1,24.2,N/A,,Partly Cloudy,50,2013-05-02 03:54:00
6:54 PM,78.1,66.0,66,30.02,10.0,East,16.1,25.3,N/A,,Scattered Clouds,80,2013-05-02 04:54:00
7:54 PM,75.9,64.9,69,30.05,10.0,ENE,12.7,-,N/A,,Partly Cloudy,70,2013-05-02 05:54:00
8:54 PM,75.9,66.0,71,30.06,10.0,NE,12.7,19.6,N/A,,Clear,40,2013-05-02 06:54:00
9:54 PM,73.9,69.1,85,30.08,10.0,ENE,9.2,-,N/A,,Clear,70,2013-05-02 07:54:00
10:54 PM,73.9,64.9,73,30.10,10.0,East,5.8,-,N/A,,Scattered Clouds,90,2013-05-02 08:54:00
11:54 PM,73.0,66.9,81,30.08,10.0,ENE,6.9,-,N/A,,Partly Cloudy,70,2013-05-02 09:54:00